Temperature
17 16 16 16 16 15 15 15 15 15 15 15 15 15 14 14 14 14 14 13 13 13 13 13 13 13 13 13 13 13 12 12 12 12 12 11 11 11 11 11 11 11 11
16 16 16 15 15 15 15 15 15 15 15 15 14 14 14 14 14 14 13 13 13 13 13 13 13 13 12 12 12 12 12 12 12 11 11 11 11 11 11 11 11 11 10
16 16 16 15 15 15 15 15 15 15 15 14 14 14 14 14 13 13 13 13 13 13 12 12 12 12 12 12 12 12 12 11 11 11 11 11 10 10 10 10 10 10 10
16 16 16 15 15 15 15 15 15 14 14 14 14 14 14 13 13 13 13 13 13 12 12 12 12 12 12 12 12 11 11 11 11 10 10 10 10 10 10 10 10 10 10
16 16 16 15 15 15 15 15 14 14 14 14 14 14 14 13 13 13 13 12 12 12 12 12 12 12 12 12 11 11 11 11 10 10 10 10 10 10 9 9 9 9 9
16 16 15 15 15 15 15 14 14 14 14 14 13 13 13 13 13 13 12 12 12 12 12 12 12 12 12 11 11 11 11 10 10 10 10 10 10 9 9 9 9 9 8
16 15 15 15 15 15 14 14 14 14 14 13 13 13 13 13 13 12 12 12 12 12 12 12 12 11 11 11 11 11 11 10 10 10 10 10 10 9 9 9 9 8 8
15 15 15 15 15 14 14 14 14 13 13 13 13 13 13 13 12 12 12 12 11 11 11 11 11 11 11 11 11 11 10 10 10 10 10 9 9 9 9 9 8 8 8
15 15 15 15 14 14 14 13 13 13 13 13 13 13 12 12 12 12 12 11 11 11 11 11 11 11 11 11 10 10 10 10 10 9 9 9 9 9 8 8 8 8 7
15 14 14 14 14 14 13 13 13 13 13 12 12 12 12 12 12 12 11 11 11 11 11 11 11 11 11 10 10 10 10 10 10 9 9 9 9 8 8 8 8 7 7
14 14 14 13 13 13 13 13 13 12 12 12 12 12 12 12 12 11 11 11 11 11 11 10 10 10 10 10 10 10 10 9 9 9 8 8 8 8 8 8 7 7 7
13 13 13 13 13 13 13 12 12 12 12 12 12 12 11 11 11 11 11 11 11 10 10 10 10 10 10 10 10 10 9 9 9 8 8 8 8 8 7 7 7 7 7
13 13 12 12 12 12 12 12 12 12 12 11 11 11 11 11 11 11 11 11 10 10 10 10 10 10 10 9 9 9 9 9 8 8 8 8 7 7 7 7 7 6 6
12 12 12 12 12 12 12 12 12 11 11 11 11 11 11 11 11 11 10 10 10 10 10 10 9 9 9 9 9 9 9 8 8 8 8 7 7 7 6 6 6 6 6
12 12 12 11 11 11 11 11 11 11 11 11 11 11 10 10 11 10 10 10 10 10 10 9 9 9 9 9 9 8 8 8 8 7 7 7 6 6 6 6 6 5 5
12 11 11 11 11 11 11 11 11 10 10 10 10 10 10 10 10 10 10 10 10 10 9 9 9 9 9 8 8 8 8 7 7 7 7 6 6 6 6 5 5 5 5
11 11 11 11 10 10 10 10 10 10 10 10 10 10 10 10 10 10 9 9 9 9 9 9 8 8 8 8 7 7 7 7 7 7 6 6 6 5 5 5 5 4 4
11 11 11 10 10 10 10 10 10 10 10 9 9 9 9 9 9 9 9 9 8 8 8 8 8 8 8 7 7 7 7 7 6 6 6 6 5 5 5 5 4 4 4
10 10 10 10 10 9 9 9 9 9 9 9 9 9 9 9 9 8 8 8 8 8 8 8 7 7 7 7 7 7 6 6 6 6 5 5 5 5 4 4 4 4 3
10 10 10 9 9 9 9 9 9 9 9 9 9 9 8 8 8 8 8 7 8 8 8 7 7 7 7 7 7 6 6 6 6 5 5 5 5 4 4 4 4 4 3
10 9 9 9 9 8 8 8 8 8 8 8 8 8 8 8 8 7 7 7 7 7 7 7 7 7 6 6 6 6 6 6 5 5 5 5 4 4 4 4 4 3 3
9 9 9 8 8 8 8 8 8 8 8 8 8 8 7 7 7 7 7 7 7 7 7 7 6 6 6 6 6 6 5 5 5 5 4 4 4 4 4 3 3 3 3
9 9 8 8 8 8 8 7 7 7 7 7 7 7 7 7 7 7 7 6 6 6 6 6 6 6 6 5 5 5 5 5 4 4 4 4 4 3 3 3 3 3 2
8 8 8 8 8 7 7 7 7 7 7 7 7 7 7 6 6 6 6 6 6 6 6 6 6 6 5 5 5 5 5 4 4 4 4 4 3 3 3 3 2 2 2
8 8 7 7 7 7 7 7 7 7 7 7 6 6 6 6 6 6 6 6 6 5 5 5 5 5 5 5 5 5 4 4 4 4 4 3 3 3 3 2 2 2 2
7 7 7 7 7 7 7 6 6 6 6 6 6 6 6 6 6 6 6 5 5 5 5 5 5 5 5 4 4 4 4 4 4 3 3 3 3 3 2 2 2 1 1
Wind_Speed
4 3 4 3 3 3 2 2 2 2 2 2 2 2 2 2 2 2 2 1 2 1 1 2 1 1 1 1 1 1 1 1 1 1 1 1 2 1 2 3 2 3 2
3 3 4 4 3 3 3 3 2 2 2 2 2 2 2 2 2 3 2 2 1 1 1 2 1 1 1 0 0 0 0 1 1 0 1 0 0 1 1 1 1 2 2
4 4 4 4 3 3 3 3 2 2 2 2 2 2 1 2 2 2 2 2 2 1 1 2 2 2 1 1 1 0 0 0 1 1 1 0 0 1 1 1 1 0 1
4 4 4 4 3 3 2 2 2 2 1 2 2 2 2 1 1 1 2 2 1 1 1 1 1 2 2 1 1 1 1 1 0 0 1 1 1 1 1 1 1 1 1
4 3 3 3 3 3 3 2 1 1 1 1 2 1 2 1 1 1 1 2 2 2 1 1 1 2 2 2 1 1 1 1 1 1 1 1 1 0 1 1 1 1 1
4 4 3 3 3 3 3 3 2 1 1 1 1 2 1 1 3 3 1 1 1 2 2 2 2 2 4 4 4 3 2 2 1 1 1 1 2 1 1 1 1 1 2
3 4 4 3 3 3 3 3 3 3 2 1 2 2 2 2 3 2 1 1 1 1 1 1 1 2 4 2 2 2 1 1 1 1 1 2 1 1 1 1 1 1 2
3 4 4 4 3 3 2 3 3 3 3 2 2 2 2 2 3 2 1 2 1 1 1 1 2 2 3 3 1 0 0 1 1 1 1 1 1 1 1 1 2 2 1
2 3 4 4 4 3 3 3 3 3 3 3 3 3 3 3 3 3 1 1 1 1 1 1 1 2 3 3 2 1 1 1 1 1 0 1 1 2 2 1 1 1 2
1 2 3 4 4 4 4 3 2 2 3 3 3 3 4 4 4 4 3 1 2 2 1 1 1 2 3 3 2 2 2 2 1 1 1 2 1 2 2 0 1 1 1
1 1 2 3 4 4 4 3 3 3 3 3 3 3 3 4 5 5 5 2 2 2 2 2 2 3 3 3 3 3 4 2 2 2 2 1 1 1 1 1 1 2 2
0 1 2 2 3 3 3 3 3 3 3 3 3 3 2 3 4 4 5 4 3 2 2 2 3 3 3 4 3 4 3 1 1 1 1 1 1 1 1 1 2 2 3
1 2 3 3 3 3 4 4 3 3 3 3 3 3 3 2 3 5 5 5 4 2 2 2 2 3 2 3 5 5 3 2 2 2 2 2 2 2 1 1 1 2 3
2 2 2 3 3 2 2 3 3 3 4 3 4 4 3 2 2 2 3 3 4 3 2 2 2 3 3 3 2 2 2 2 3 3 3 2 2 1 1 1 1 1 2
3 3 2 2 2 2 2 2 3 4 5 4 4 4 4 4 4 5 4 3 3 3 2 1 1 1 2 2 2 2 2 2 2 2 2 2 2 2 2 1 1 1 2
2 2 2 2 2 2 2 1 1 2 4 4 4 4 3 4 4 5 5 3 3 4 3 3 3 3 3 3 3 2 3 3 3 3 3 3 3 3 2 2 2 2 2
2 2 2 2 2 3 3 3 2 1 1 2 3 4 4 4 4 4 4 3 4 4 3 3 3 3 3 3 3 3 3 3 2 3 3 3 3 2 2 2 2 2 3
2 2 2 2 2 3 3 3 3 3 2 1 2 2 3 4 4 4 4 2 2 2 3 3 3 3 3 3 3 3 2 2 2 2 2 2 2 2 2 3 3 3 3
2 1 2 2 2 2 3 3 3 3 3 2 1 1 2 2 2 3 4 3 3 3 3 3 3 3 3 3 3 2 3 3 3 3 3 3 2 2 3 3 3 4 4
1 2 2 2 2 2 2 2 2 2 3 3 3 2 2 2 1 2 3 3 3 3 3 3 3 3 3 2 2 2 2 2 3 3 3 2 2 3 3 4 3 3 4
1 2 3 2 2 2 2 2 3 3 3 3 3 3 4 3 4 4 4 4 4 4 3 3 3 3 3 3 2 3 3 3 3 2 2 2 2 3 3 3 3 3 3
2 2 2 3 2 2 2 3 3 3 3 3 2 3 5 4 4 3 3 4 4 3 3 3 3 3 3 3 3 3 3 3 2 2 2 2 2 3 3 3 3 3 3
2 2 2 2 2 3 3 3 3 3 3 3 3 3 3 4 3 3 3 3 3 2 2 2 3 2 2 3 3 3 3 3 3 3 3 3 2 2 2 3 4 4 4
3 3 3 3 2 3 3 3 3 3 3 3 3 3 4 4 3 3 3 3 3 2 2 2 3 3 3 1 1 2 3 3 3 3 3 3 3 3 3 3 4 4 4
3 3 3 4 3 3 4 4 4 4 3 4 4 4 3 3 3 3 3 3 3 3 3 2 2 2 2 2 2 2 3 3 2 2 3 3 4 4 4 4 4 4 4
4 4 4 4 4 4 4 4 4 4 4 4 4 4 4 4 3 3 2 2 2 2 3 2 2 2 2 2 3 4 3 3 3 3 3 3 3 4 4 4 5 5 5
Wind_Direction
165 165 144 140 139 139 144 133 123 124 132 122 128 130 139 141 123 116 116 108 120 137 117 116 131 114 99 47 38 34 38 81 128 314 45 104 88 95 102 134 122 115 97
155 146 143 149 144 149 156 144 154 156 160 150 140 132 138 136 142 136 138 133 134 147 149 138 169 128 115 99 74 73 77 102 129 250 333 16 35 117 113 138 123 131 134
143 147 144 143 149 166 162 166 161 151 153 147 133 134 126 121 132 142 144 153 154 161 156 155 157 135 143 120 142 90 60 81 126 158 269 317 348 24 34 348 351 57 177
139 139 141 153 157 162 147 144 143 147 155 156 149 143 136 126 121 141 144 148 149 149 149 105 120 137 143 149 150 150 117 81 89 140 268 283 273 296 75 308 312 313 325
145 146 158 161 148 147 143 141 147 156 164 150 143 139 132 142 122 101 149 166 181 173 148 126 103 101 110 129 126 125 128 154 168 208 255 288 290 325 265 251 267 275 302
156 157 147 159 152 155 163 165 170 180 182 156 154 153 142 120 108 98 66 289 209 158 169 171 157 128 105 82 76 88 115 153 174 194 245 248 264 254 271 271 245 312 298
155 161 159 162 164 173 180 173 176 177 169 178 193 154 135 138 137 130 97 297 250 174 169 147 143 120 115 103 70 57 26 356 187 183 206 251 268 264 266 289 275 253 249
169 171 166 168 169 178 185 184 190 181 180 196 199 159 149 159 154 154 191 264 245 195 162 147 137 143 131 126 142 123 189 346 281 269 214 272 292 285 253 253 257 279 287
176 182 170 167 171 178 190 208 214 198 196 200 197 180 173 177 174 169 155 258 247 227 187 152 158 150 127 117 127 143 135 302 305 238 212 282 326 340 351 24 351 340 300
209 193 176 171 171 186 205 215 220 216 208 198 200 197 179 178 186 184 183 220 238 241 229 199 171 157 155 150 159 177 201 229 209 265 274 270 279 311 327 199 198 239 283
228 229 190 184 192 195 205 205 207 213 202 199 206 209 192 179 185 188 189 209 225 234 225 214 198 188 202 213 222 218 226 234 213 211 219 229 240 245 270 278 258 209 223
179 222 233 219 213 206 190 201 207 197 198 208 210 213 204 182 179 195 196 218 240 235 237 218 195 192 219 236 237 239 232 258 224 213 223 247 241 245 247 242 249 252 238
203 231 224 239 233 204 187 194 200 191 196 208 208 212 212 192 188 192 201 220 242 246 258 258 236 229 237 238 236 233 219 199 209 215 222 234 231 230 234 255 273 267 273
228 240 219 225 230 225 204 191 191 196 199 209 209 210 206 194 185 183 204 220 230 245 261 261 239 225 225 224 228 225 214 206 200 210 220 234 232 222 234 241 257 272 290
233 217 214 218 213 220 215 198 196 202 194 200 207 201 196 203 213 198 193 206 205 207 207 208 195 190 205 209 212 213 210 206 215 213 214 235 241 232 238 239 241 262 270
245 211 200 207 210 197 192 221 233 207 193 200 205 201 205 207 202 192 194 203 200 190 175 193 208 205 208 214 214 217 217 213 210 208 211 219 225 224 231 240 240 237 252
239 226 213 210 209 200 201 204 213 272 234 218 209 201 203 198 196 192 196 190 191 173 182 206 215 219 222 219 217 215 220 218 210 213 219 222 223 229 235 241 243 243 255
228 225 224 216 215 210 211 216 206 199 205 235 236 222 204 191 187 184 174 151 182 193 199 214 225 226 227 227 221 220 219 213 214 223 228 225 228 240 242 245 243 242 255
231 219 220 218 215 213 218 218 213 209 199 185 173 223 209 167 163 180 167 179 196 212 219 227 235 235 233 230 225 221 222 224 225 225 229 228 227 238 251 250 250 256 257
228 228 231 225 216 217 216 214 217 215 202 192 194 191 152 127 161 190 205 216 217 224 225 228 237 238 236 231 220 214 222 231 230 231 232 232 232 234 246 252 252 253 250
217 229 234 229 214 220 218 218 219 217 209 204 203 188 169 184 201 211 215 219 225 230 232 235 235 231 230 222 215 217 224 233 231 232 242 245 248 252 253 253 256 256 256
209 217 224 223 217 213 225 226 219 218 219 218 214 203 189 194 204 211 223 225 225 231 233 229 233 232 229 221 217 220 228 229 226 231 247 254 255 260 259 255 256 262 259
208 222 240 240 230 222 230 237 228 218 219 220 214 198 201 213 212 215 227 239 232 231 236 231 235 242 243 241 228 212 216 224 230 232 236 242 247 250 255 262 262 263 259
220 227 234 236 227 217 222 232 232 224 217 221 222 212 207 213 216 220 225 237 241 241 235 235 233 238 242 249 210 186 196 218 222 221 229 235 243 249 254 259 265 266 267
227 223 228 229 223 220 223 229 229 224 222 223 225 221 209 210 218 227 228 231 241 243 244 241 231 225 214 217 206 194 200 209 224 226 224 226 232 241 247 254 260 264 267
229 231 232 229 220 216 222 229 228 226 225 226 226 222 211 211 218 222 222 229 244 253 254 246 234 220 224 215 206 203 208 214 227 243 232 225 231 240 245 247 254 256 260
Height
1534 1536 1537 1538 1539 1540 1541 1542 1543 1543 1544 1544 1545 1545 1545 1545 1546 1546 1546 1547 1547 1547 1548 1548 1548 1549 1549 1549 1550 1550 1550 1550 1550 1551 1551 1550 1550 1549 1548 1547 1546 1546 1545
1533 1534 1535 1536 1538 1539 1540 1540 1541 1542 1543 1543 1544 1544 1544 1544 1545 1545 1545 1545 1546 1546 1546 1547 1547 1548 1548 1548 1548 1548 1548 1549 1549 1548 1549 1548 1548 1547 1547 1546 1545 1544 1543
1531 1532 1533 1535 1536 1537 1538 1539 1540 1541 1542 1542 1542 1542 1543 1543 1543 1543 1544 1544 1544 1544 1545 1545 1545 1546 1546 1546 1546 1546 1547 1547 1547 1547 1546 1546 1546 1545 1545 1544 1543 1542 1542
1530 1531 1532 1533 1534 1536 1537 1538 1539 1539 1540 1540 1541 1541 1541 1542 1542 1542 1542 1542 1543 1543 1543 1543 1544 1544 1544 1544 1545 1545 1545 1544 1545 1545 1544 1544 1544 1543 1543 1542 1541 1540 1539
1528 1529 1530 1531 1532 1534 1535 1536 1537 1537 1538 1539 1539 1539 1540 1540 1540 1540 1540 1541 1541 1541 1541 1542 1542 1542 1543 1543 1543 1543 1542 1542 1542 1542 1542 1542 1541 1540 1540 1539 1538 1538 1537
1526 1527 1528 1529 1530 1531 1532 1533 1534 1535 1536 1536 1537 1537 1537 1538 1538 1538 1539 1539 1539 1539 1539 1540 1540 1540 1541 1541 1541 1541 1541 1541 1540 1540 1540 1539 1539 1538 1538 1537 1536 1535 1534
1524 1525 1526 1527 1528 1529 1530 1531 1531 1532 1533 1534 1534 1535 1535 1535 1536 1536 1537 1537 1537 1537 1537 1538 1538 1538 1538 1538 1538 1539 1539 1539 1539 1538 1537 1537 1537 1536 1535 1534 1534 1533 1532
1522 1523 1523 1524 1525 1526 1527 1528 1529 1530 1530 1531 1531 1532 1532 1533 1533 1533 1534 1534 1534 1534 1535 1535 1535 1535 1535 1535 1536 1536 1536 1536 1535 1535 1535 1534 1534 1533 1533 1532 1531 1530 1529
1519 1520 1521 1521 1522 1523 1524 1525 1526 1527 1527 1528 1528 1529 1529 1530 1530 1531 1531 1531 1531 1532 1532 1532 1533 1533 1533 1533 1533 1533 1532 1532 1532 1532 1532 1531 1531 1531 1530 1529 1528 1527 1526
1517 1517 1518 1518 1519 1519 1520 1521 1522 1523 1524 1525 1525 1526 1526 1527 1527 1527 1528 1528 1528 1528 1529 1529 1530 1530 1530 1530 1530 1530 1529 1529 1529 1528 1528 1528 1527 1527 1527 1526 1525 1524 1523
1514 1514 1514 1515 1515 1516 1517 1518 1519 1519 1520 1521 1522 1522 1523 1523 1524 1524 1524 1525 1525 1525 1525 1525 1526 1527 1527 1527 1527 1526 1526 1526 1525 1525 1524 1524 1523 1523 1522 1522 1521 1521 1520
1510 1511 1511 1511 1512 1512 1513 1514 1515 1515 1516 1517 1518 1519 1519 1520 1520 1521 1521 1521 1521 1521 1521 1522 1522 1523 1523 1523 1523 1522 1522 1522 1522 1521 1521 1520 1519 1519 1518 1518 1517 1516 1516
1507 1507 1507 1507 1508 1508 1509 1509 1510 1511 1512 1512 1513 1514 1515 1516 1516 1517 1517 1517 1517 1518 1518 1518 1518 1518 1518 1518 1519 1519 1518 1518 1518 1517 1516 1516 1516 1516 1515 1514 1513 1512 1511
1504 1504 1504 1504 1504 1504 1505 1505 1506 1506 1507 1508 1509 1510 1511 1511 1512 1512 1512 1513 1513 1513 1513 1513 1514 1514 1514 1514 1514 1514 1514 1514 1514 1513 1513 1512 1512 1512 1511 1510 1509 1508 1507
1501 1501 1500 1500 1500 1500 1501 1501 1502 1502 1503 1504 1504 1505 1506 1507 1507 1508 1508 1508 1508 1508 1509 1509 1509 1509 1509 1509 1509 1509 1510 1510 1509 1509 1509 1508 1508 1507 1507 1506 1505 1504 1503
1498 1497 1497 1497 1497 1497 1497 1498 1498 1499 1500 1501 1501 1502 1502 1503 1504 1504 1504 1504 1504 1505 1505 1504 1504 1504 1505 1505 1505 1505 1505 1505 1505 1505 1504 1504 1504 1503 1502 1502 1501 1500 1499
1494 1494 1493 1493 1493 1493 1494 1494 1495 1496 1497 1497 1498 1498 1498 1499 1499 1500 1500 1500 1500 1501 1500 1500 1500 1500 1500 1500 1500 1501 1501 1500 1500 1500 1500 1499 1499 1499 1498 1497 1497 1496 1495
1490 1490 1490 1490 1490 1490 1490 1491 1491 1491 1492 1492 1493 1494 1494 1494 1495 1495 1495 1496 1496 1496 1496 1496 1496 1496 1496 1496 1496 1496 1496 1496 1496 1496 1495 1495 1495 1494 1493 1493 1492 1491 1490
1486 1486 1486 1486 1486 1486 1487 1487 1487 1488 1488 1488 1489 1490 1491 1491 1491 1491 1491 1491 1491 1491 1491 1492 1492 1492 1492 1492 1492 1492 1492 1491 1491 1491 1491 1490 1489 1489 1488 1488 1487 1486 1486
1482 1482 1482 1482 1482 1482 1483 1483 1484 1484 1484 1484 1485 1485 1486 1486 1486 1486 1486 1487 1487 1487 1487 1487 1487 1487 1487 1487 1487 1487 1487 1487 1486 1486 1486 1485 1484 1484 1483 1482 1482 1481 1480
1478 1478 1478 1478 1478 1479 1479 1479 1480 1480 1480 1481 1481 1481 1482 1482 1482 1482 1482 1483 1483 1483 1483 1483 1483 1483 1483 1483 1483 1483 1482 1482 1481 1481 1481 1480 1479 1479 1478 1477 1477 1476 1475
1474 1474 1475 1475 1475 1475 1476 1476 1476 1477 1477 1477 1477 1477 1478 1478 1478 1478 1478 1478 1479 1479 1479 1479 1478 1478 1478 1478 1478 1477 1477 1476 1476 1476 1475 1475 1474 1474 1473 1472 1472 1471 1471
1470 1470 1471 1471 1471 1472 1472 1472 1473 1473 1473 1473 1473 1473 1473 1473 1473 1474 1474 1474 1474 1474 1474 1474 1473 1473 1473 1473 1473 1472 1472 1471 1471 1471 1470 1469 1469 1469 1468 1468 1467 1466 1465
1466 1466 1466 1467 1467 1467 1468 1468 1468 1469 1469 1469 1469 1469 1469 1469 1469 1469 1470 1470 1470 1470 1470 1469 1469 1468 1468 1468 1468 1467 1467 1466 1466 1465 1465 1464 1464 1463 1463 1462 1462 1461 1460
1461 1462 1462 1462 1463 1463 1463 1464 1464 1464 1464 1464 1464 1464 1464 1465 1465 1465 1465 1465 1465 1465 1465 1464 1464 1464 1463 1463 1462 1462 1461 1461 1460 1460 1459 1458 1458 1458 1458 1457 1457 1456 1455
1457 1457 1457 1458 1458 1458 1458 1459 1459 1460 1460 1460 1460 1460 1460 1460 1460 1460 1460 1460 1460 1460 1459 1459 1459 1459 1458 1458 1457 1456 1456 1455 1455 1455 1454 1453 1453 1452 1452 1452 1451 1451 1450